Regional Weather Roundup
Issued by NWS

Home | Current Version | Previous Version | Text Only | Print | Product List | Glossary Off
Versions: 1 2 3 4 5 6 7 8 9 10 11 12 13 14 15 16 17 18 19 20 21 22 23 24 25 26 27

000
ASUS43 KDMX 151007
RWRIA

WEATHER ROUNDUP FOR IOWA
NATIONAL WEATHER SERVICE DES MOINES IA
500 AM CDT TUE APR 15 2014

NOTE: "FAIR" INDICATES FEW OR NO CLOUDS BELOW 12,000 FEET WITH NO
SIGNIFICANT WEATHER AND/OR OBSTRUCTIONS TO VISIBILITY.

* - THESE STATIONS ARE NOT NWS STATIONS...THUS NOT UNDER NWS
QUALITY CONTROL.  THEY ALSO DO NOT REPORT WEATHER SUCH
AS PRECIPITATION OR FOG.

IAZ001>003-012>014-020>022-031>034-043>046-151100-
   NORTHWEST IOWA

CITY           SKY/WX    TMP DP  RH WIND       PRES   REMARKS
CARROLL *      MOCLDY    23  19  86 NW6       30.17R WCI  16
CHEROKEE *     CLEAR     19  14  79 CALM      30.19R
DENISON *      CLEAR     21  18  86 CALM      30.17R
LE MARS *      CLEAR     18  16  93 CALM      30.20S
ORANGE CITY *  CLEAR     19  14  79 CALM      30.18R
SHELDON *      CLEAR     12  10  92 CALM      30.17R
SIOUX CITY     CLEAR     19  15  84 CALM      30.21R
SPENCER        CLEAR     15  11  83 NW5       30.16S WCI   8
STORM LAKE *   CLEAR     19  16  86 N7        30.17R WCI  10
$$

IAZ055>058-069>071-079>083-090>094-151100-
   SOUTHWEST IOWA

CITY           SKY/WX    TMP DP  RH WIND       PRES   REMARKS
ATLANTIC *     PTCLDY    23  21  93 N3        30.17S
AUDUBON *      CLEAR     21  14  73 NW3       30.16S
CLARINDA *     CLEAR     23  23 100 CALM      30.20S
COUNCIL BLFS * CLEAR     27  19  74 NW5       30.17S WCI  21
CRESTON *      CLEAR     25  19  80 W5        30.16S WCI  19
HARLAN  *      CLEAR     23  19  86 CALM      30.21R
LAMONI         CLEAR     26  20  77 W5        30.15S WCI  20
RED OAK *      CLEAR     25  25 100 CALM      30.18S
SHENANDOAH *   CLEAR     23  21  93 SW5       30.20S WCI  17
$$

IAZ047>049-059>061-072>074-084-151100-
   CENTRAL IOWA

CITY           SKY/WX    TMP DP  RH WIND       PRES   REMARKS
AMES           PTCLDY    25  19  78 NW9       30.15S WCI  15
ANKENY *       PTCLDY    27  19  74 NW8       30.16R WCI  18
CHARITON *     PTCLDY    25  21  86 W7        30.15S WCI  17
DES MOINES     CLEAR     26  18  71 NW6       30.16S WCI  19
GRINNELL*      CLEAR     25  21  86 W5        30.13S WCI  19
KNOXVILLE *    CLEAR     25  18  74 W6        30.14S WCI  18
MARSHALLTOWN   CLEAR     25  20  81 NW8       30.12S WCI  16
NEWTON *       CLOUDY    25  19  80 W6        30.15S WCI  18
PELLA *        PTCLDY    27  19  74 NW7       30.15S WCI  19
PERRY *          N/A     27  21  80 NW9       30.17R WCI  17
$$

IAZ004>006-015-016-023>025-035-036-151100-
   NORTH CENTRAL IOWA

CITY           SKY/WX    TMP DP  RH WIND       PRES   REMARKS
ALGONA *       CLEAR     21  14  73 N9        30.15S WCI  11
CLARION *      CLEAR     23  18  80 NW9       30.14S WCI  13
ESTHERVILLE    CLEAR     17  13  84 NW7       30.14F WCI   8
FORT DODGE *   CLEAR     23  16  74 N5        30.17R WCI  17
MASON CITY     CLEAR     21  12  68 NW15      30.13S WCI   8
FOREST CITY *  CLEAR     23   9  54 NW10      30.12S WCI  12
IOWA FALLS *     N/A     25  18  74 NW10      30.14S WCI  15
$$

IAZ007>011-017>019-026>030-037>042-050>054-066-151100-
   NORTHEAST IOWA

CITY           SKY/WX    TMP DP  RH WIND       PRES   REMARKS
CEDAR RAPIDS   CLEAR     25  17  72 NW12      30.09S WCI  14
CHARLES CITY * CLEAR     25  16  68 NW8       30.11S WCI  16
CLINTON *      CLEAR     21  18  86 NW7       30.11R WCI  13
DECORAH *      CLOUDY    25  16  68 NW7       30.06F WCI  17
DUBUQUE        MOCLDY    24  17  74 NW7       30.06R WCI  16
MONTICELLO *   CLEAR     27  19  74 NW10      30.08S WCI  17
OELWEIN *      CLEAR    N/A N/A N/A NW13      30.10S
WATERLOO       CLEAR     23  16  74 NW7       30.11S WCI  15
$$

IAZ064-065-067-068-078-151100-
   EAST CENTRAL IOWA

CITY           SKY/WX    TMP DP  RH WIND       PRES   REMARKS
DAVENPORT      CLEAR     26  21  81 NW8       30.09R WCI  18
IOWA CITY      CLEAR     27  17  66 NW7       30.13S WCI  19
MT. PLEASANT * CLEAR     28  19  69 W7        30.13S WCI  21
MUSCATINE *    CLEAR     28  19  69 W10       30.12S WCI  19
QUAD CITIES    CLEAR     28  19  69 NW10      30.09R WCI  19
$$

IAZ062-063-075>077-085>089-095>099-151100-
   SOUTHEAST IOWA

CITY           SKY/WX    TMP DP  RH WIND       PRES   REMARKS
BURLINGTON     CLEAR     28  18  66 NW7       30.11S WCI  21
FAIRFIELD *    CLEAR     27  19  74 W7        30.14S WCI  19
FORT MADISON * CLEAR     28  19  69 NW10      30.13S WCI  19
KEOKUK *       CLEAR     27  19  74 NW8       30.13S WCI  18
OSKALOOSA *      N/A     25  21  86 W6        30.14F WCI  18
CENTERVILLE *  CLEAR     25  19  80 W6        30.16S WCI  18
OTTUMWA        CLEAR     24  17  74 W7        30.14S WCI  16
WASHINGTON *   CLEAR     25  19  80 NW8       30.13S WCI  16
$$

ABBREVIATIONS USED IN REMARKS
   TC - TEMPERATURES IN CELSIUS
  WCI - WIND CHILL INDEX
   HX - HEAT INDEX
  VSB - VISIBILITY
$$




USA.gov is the U.S. government's official web portal to all federal, state and local government web resources and services.